Regional Weather Roundup
Issued by NWS

Home | Current Version | Previous Version | Graphics & Text | Print | Product List | Glossary On
Versions: 1 2 3 4 5 6 7 8 9 10 11 12 13 14 15 16 17 18 19 20 21 22 23 24 25 26 27 28 29 30 31 32 33 34 35 36 37 38 39 40 41 42 43 44 45 46 47 48 49 50
975
ASUS45 KCYS 272010
RWRWY

WYOMING REGIONAL WEATHER ROUNDUP
NATIONAL WEATHER SERVICE CHEYENNE WY
200 PM MDT MON MAR 27 2017

NOTE:  "FAIR" INDICATES FEW OR NO CLOUDS BELOW 12,000 FEET
WITH NO SIGNIFICANT WEATHER AND/OR OBSTRUCTIONS TO VISIBILITY.

WYZ001-272100-
YELLOWSTONE NATIONAL PARK

CITY           SKY/WX    TMP DP  RH WIND       PRES   REMARKS
LK YELLOWSTONE   N/A     36  27  69 VRB3      29.89F
W YELLOWSTONE  NOT AVBL

$$
WYZ002>013-054>058-071-098>099-272100-
NORTHERN WYOMING

CITY           SKY/WX    TMP DP  RH WIND       PRES   REMARKS
JACKSON        CLOUDY    43  30  61 SW8       29.87S
CODY           PTSUNNY   54  26  34 N5        29.82F
GREYBULL       FAIR      59  25  27 N9        29.80F
WORLAND        FAIR      58  27  30 VRB3      29.80F
SHERIDAN       PTSUNNY   61  30  31 N9        29.82S
BUFFALO        CLOUDY    55  31  39 NE6       29.84S
GILLETTE       FAIR      58  28  32 E7        29.83S
HULETT         FAIR      61  32  33 SE8       29.84S
NEWCASTLE      FAIR      55  28  35 S3        29.82F

$$
WYZ014>020-022>026-101>103-272100-
CENTRAL WYOMING

CITY           SKY/WX    TMP DP  RH WIND       PRES   REMARKS
BIG PINEY      FAIR      44  27  51 NE6       29.88F
PINEDALE       FAIR      41  23  48 CALM      29.89S
DUBOIS         MOCLDY    45  19  36 N9G16     29.84S
LANDER         FAIR      53  24  32 VRB6      29.80F
RIVERTON       FAIR      53  23  31 NE9       29.82F
CASPER         FAIR      57  22  25 SW6       29.82F
DOUGLAS        FAIR      59  21  23 W12       29.83S

$$
WYZ021-027>030-104>119-272100-
SOUTHERN WYOMING

CITY           SKY/WX    TMP DP  RH WIND       PRES   REMARKS
EVANSTON       LGT RAIN  38  32  79 NW16G28   29.84F WCI  29
KEMMERER         N/A     41  28  60 NE5       29.87S
ROCK SPRINGS   CLOUDY    49  23  36 SW3       29.84F
DIXON            N/A     54  26  33 SW9       29.87F
RAWLINS        CLOUDY    52  17  25 W7        29.85F
SARATOGA       CLOUDY    48  23  37 E10G18    29.87F
LARAMIE        CLOUDY    48  22  35 SW12      29.88F
CHEYENNE       PTSUNNY   53  27  36 S7        29.87F
TORRINGTON     FAIR      64  20  18 SW13      29.81F
PINE BLUFFS    CLOUDY    59  27  29 S15G21    29.86F

$$




USA.gov is the U.S. government's official web portal to all federal, state and local government web resources and services.